EHI
17 19 20 18 17 20 22 22 20 14 9 4 2 1 1 1 1 1 0 0 0 0 0 0 0 0 0 0 0 0 0 0 0 0 0 0 0 0 0 0 0 0 0
22 24 25 23 23 24 24 24 23 18 11 5 3 2 2 2 2 2 1 0 0 0 0 0 0 0 0 0 0 0 0 0 0 0 0 0 0 0 0 0 0 0 0
25 28 34 36 36 34 31 30 29 24 15 8 5 3 3 3 3 3 1 1 0 0 0 0 0 0 1 1 0 0 0 0 0 0 0 0 0 0 0 0 0 0 0
22 29 41 49 50 47 42 39 37 30 21 13 7 4 3 3 3 3 3 2 1 1 1 0 0 0 1 1 0 0 0 0 0 0 0 0 0 0 0 0 0 0 0
19 28 40 48 51 51 48 45 42 35 25 17 11 6 4 3 3 3 3 3 3 2 2 1 1 0 1 1 0 0 0 0 0 0 0 0 0 0 0 0 0 0 0
24 29 37 41 42 45 44 42 41 35 27 21 14 8 5 3 2 1 2 3 3 3 4 4 3 1 0 0 0 0 0 0 0 0 0 0 0 0 0 0 0 0 0
28 30 34 35 35 35 33 34 34 31 28 23 16 10 8 5 1 0 1 1 2 3 6 9 8 3 1 1 1 0 0 0 0 0 0 0 0 0 0 0 0 0 0
21 23 25 26 27 25 24 25 26 25 23 20 14 11 10 6 2 0 0 0 1 2 5 11 13 6 2 2 1 0 0 0 0 0 0 0 0 0 0 0 0 0 0
9 11 13 15 17 18 18 19 20 19 16 13 9 9 9 6 2 0 0 0 0 2 4 8 10 6 2 1 1 0 0 0 0 0 0 0 0 0 0 0 0 0 0
3 5 6 6 9 11 13 14 15 14 12 8 5 4 5 4 1 0 0 0 0 1 3 4 3 2 1 0 0 0 0 0 0 0 0 0 0 0 0 0 0 0 0
0 1 1 2 3 5 7 8 9 9 8 7 4 2 2 1 0 0 0 0 0 1 2 2 0 0 0 0 0 0 0 0 0 0 1 0 0 0 0 0 0 0 0
0 0 0 0 0 1 2 2 3 4 4 5 4 2 0 0 0 0 0 0 0 0 1 1 0 0 0 0 0 0 0 0 0 0 0 0 0 0 0 0 0 0 0
0 0 0 0 0 0 0 0 1 1 1 2 1 0 0 0 0 0 0 0 0 0 1 1 0 0 0 0 0 0 0 0 0 0 0 0 0 0 0 0 0 0 0
0 0 0 0 0 0 0 0 0 0 0 0 0 0 0 0 0 0 0 0 0 0 0 0 0 0 0 0 0 0 0 0 0 0 0 1 1 1 1 0 0 0 0
0 0 0 0 0 0 0 0 0 0 0 0 0 0 0 0 0 0 0 0 0 0 0 0 0 0 0 0 0 0 0 0 0 0 1 2 2 2 1 0 1 0 0
0 0 0 0 0 0 0 0 0 0 0 0 0 0 0 0 0 0 0 0 0 0 0 0 0 0 0 0 0 0 0 0 0 0 1 1 1 1 0 0 0 0 0
0 0 0 0 0 0 0 0 0 0 0 0 0 0 0 0 0 0 0 0 0 0 0 0 0 0 0 0 0 0 0 0 0 0 0 0 0 0 0 0 0 0 0
0 0 0 0 0 0 0 0 0 0 0 0 0 0 0 0 0 0 0 0 0 0 0 0 0 0 0 0 0 0 0 0 0 0 0 0 0 0 0 0 0 0 0
0 0 0 0 0 0 0 0 0 0 0 0 0 0 0 0 0 0 0 0 0 0 0 0 0 0 0 0 0 0 0 0 0 0 0 0 0 0 0 0 0 0 0
0 0 0 0 0 0 0 0 0 0 0 0 0 0 0 0 0 0 0 0 0 0 0 0 0 0 0 0 0 0 0 0 0 0 0 0 0 0 0 0 0 0 0
0 0 0 0 0 0 0 0 0 0 0 0 0 0 0 0 0 0 0 0 0 0 0 0 0 0 0 0 0 0 0 0 0 0 0 0 0 0 0 0 0 0 0
0 0 0 0 0 0 0 0 0 0 0 0 0 0 0 0 0 0 0 0 0 0 0 0 0 0 0 0 0 0 0 0 0 0 0 0 0 0 0 0 0 0 0
0 0 0 0 0 0 0 0 0 0 0 0 0 0 0 0 0 0 0 0 0 0 0 0 0 0 0 0 0 0 0 0 0 0 0 0 0 0 0 0 0 0 0
0 0 0 0 0 0 0 0 0 0 0 0 0 0 0 0 0 0 0 0 0 0 0 0 0 0 0 0 0 0 0 0 0 0 0 0 0 0 0 0 0 0 0
0 0 0 0 0 0 0 0 0 0 0 0 0 0 0 0 0 0 0 0 0 0 0 0 0 0 0 0 0 0 0 0 0 0 0 0 0 0 0 0 0 0 0
0 0 0 0 0 0 0 0 0 0 0 0 0 0 0 0 0 0 0 0 0 0 0 0 0 0 0 0 0 0 0 0 0 0 0 0 0 0 0 0 0 0 0
Wind_Speed
13 13 12 11 11 11 10 10 10 9 9 9 9 9 9 9 9 9 9 7 8 8 8 8 8 8 6 6 6 6 6 7 8 8 6 5 6 8 7 7 8 8 8
13 12 12 11 11 11 11 11 10 10 10 10 10 10 10 10 10 10 11 10 10 10 10 9 10 8 9 8 7 8 7 7 9 10 8 7 8 8 8 9 9 9 9
12 12 12 12 12 12 11 10 10 10 10 10 10 10 10 10 10 11 11 11 11 11 10 10 10 10 10 9 9 9 8 8 8 9 10 7 7 7 8 9 11 8 10
11 11 11 11 11 11 10 10 10 10 11 11 11 11 11 11 11 11 11 11 11 11 11 11 11 12 12 11 10 10 10 10 9 10 10 9 8 8 8 9 9 8 9
9 9 9 9 8 8 9 9 9 10 11 10 11 11 11 11 11 12 11 12 12 12 12 13 13 13 12 10 10 10 10 10 10 10 10 9 9 7 8 8 9 8 8
6 7 6 6 6 7 8 8 8 9 9 9 10 11 11 10 8 9 11 12 12 13 13 13 13 14 15 16 15 14 13 13 13 11 10 11 10 10 8 8 9 9 9
2 3 3 3 4 5 6 6 7 7 8 9 10 10 11 11 8 10 12 12 13 13 13 13 12 12 14 15 17 20 19 20 18 15 15 14 12 10 10 11 11 11 10
3 2 1 1 1 2 3 4 4 5 6 7 8 10 10 10 8 10 11 13 15 15 15 15 14 14 14 14 14 15 16 17 18 18 17 16 15 12 11 12 12 12 12
6 5 5 4 3 2 2 2 3 4 5 6 6 8 9 9 6 8 9 10 12 16 16 15 16 16 15 14 15 16 16 15 16 17 17 16 13 10 9 10 11 12 12
8 7 7 6 6 5 4 4 3 3 4 6 6 7 8 8 6 7 8 9 11 12 12 13 15 17 15 14 16 16 17 17 16 14 16 17 17 17 16 16 14 13 12
8 8 8 7 6 6 5 4 4 4 5 5 6 7 7 7 6 5 7 8 11 12 12 11 11 12 15 15 16 16 17 15 14 15 14 14 15 14 15 17 16 15 14
7 8 8 8 7 6 6 5 5 5 5 5 6 7 6 5 5 5 7 10 12 12 12 12 11 9 11 14 14 16 17 14 13 13 14 14 14 13 13 15 16 17 15
6 7 7 7 6 6 6 6 5 4 5 6 6 7 7 6 5 5 7 10 12 11 12 14 15 15 13 13 17 18 16 13 14 15 15 15 14 13 12 11 14 14 16
6 6 5 5 6 6 6 6 6 6 7 7 8 8 9 8 7 7 8 8 10 11 11 12 14 17 16 17 15 14 14 14 14 15 15 15 13 12 12 12 12 12 13
5 6 6 6 6 6 5 5 6 6 5 7 9 9 10 10 9 11 11 12 12 12 13 13 13 13 13 12 13 13 13 13 14 15 14 14 13 13 12 11 11 12 13
6 7 7 7 6 7 7 7 4 5 5 8 10 10 9 9 10 12 14 15 16 16 13 13 14 14 14 14 13 13 13 14 13 14 14 14 13 13 12 11 11 13 13
7 7 7 8 8 8 8 9 10 7 8 11 12 12 13 12 13 14 16 17 19 16 13 13 13 13 13 13 13 13 13 13 12 12 12 13 12 12 12 12 12 12 13
8 6 7 7 8 9 9 10 10 11 11 10 8 9 10 11 13 15 16 15 14 11 11 12 12 12 12 12 13 12 12 12 11 11 12 12 12 12 12 12 13 14 13
8 7 7 9 10 9 9 10 10 12 11 11 11 10 7 9 12 14 13 12 12 12 12 12 12 12 12 12 12 12 11 11 12 10 10 11 11 11 12 13 13 13 13
7 3 5 9 10 9 9 10 10 11 11 11 11 12 11 12 12 12 11 11 12 12 12 12 11 12 12 11 11 10 10 10 10 10 10 10 10 11 13 14 12 11 11
8 7 6 8 8 9 9 10 10 11 11 11 11 11 12 12 12 13 12 11 11 12 12 12 11 11 11 10 9 9 11 9 9 9 8 9 10 10 10 10 11 12 11
8 8 8 8 8 8 9 10 10 11 11 12 11 12 12 11 11 11 11 11 11 11 11 11 11 10 9 9 8 8 8 8 7 7 8 8 9 9 9 10 10 10 10
7 9 9 8 8 9 9 10 10 11 11 11 12 11 11 11 11 11 11 11 11 11 11 10 10 10 9 8 8 8 8 7 7 7 7 7 8 8 8 9 11 11 11
8 8 9 9 9 9 10 10 10 11 11 11 11 11 11 11 11 12 12 11 11 11 10 10 10 13 15 11 8 7 6 7 7 6 8 8 8 7 8 8 10 11 11
8 8 9 9 9 9 10 10 10 11 11 11 11 11 11 11 11 11 11 11 13 12 13 12 9 10 13 14 11 8 7 7 7 7 7 7 8 9 8 9 9 9 10
8 8 8 8 8 9 9 9 10 11 10 10 10 10 11 11 11 11 11 11 11 11 12 10 12 14 14 11 11 10 8 7 7 7 7 7 8 8 9 8 11 10 11
Wind_Direction
214 214 220 217 215 214 216 215 212 213 204 208 211 212 213 212 211 215 234 226 229 236 236 236 238 258 262 258 250 252 255 259 267 275 273 262 259 273 283 280 273 269 256
214 214 217 220 218 217 216 214 211 211 210 210 212 214 217 217 215 217 226 229 230 235 237 238 240 237 236 254 258 255 254 258 263 272 277 271 253 255 262 268 270 265 270
213 214 216 218 217 219 222 216 211 211 214 215 213 217 221 223 221 223 227 231 232 235 237 237 239 241 240 242 243 251 252 246 247 261 266 267 265 259 261 259 260 260 268
214 216 217 219 219 220 220 218 214 213 215 216 218 222 224 226 227 227 228 231 235 237 238 239 239 238 238 240 241 243 251 257 253 255 262 262 257 252 252 261 261 245 249
219 221 223 221 222 223 222 221 218 216 218 219 223 226 228 230 230 229 232 234 236 239 239 239 239 238 240 240 246 244 241 244 251 252 257 260 258 254 254 257 263 266 256
222 228 230 226 224 224 222 220 220 222 226 225 227 231 232 236 223 219 236 247 244 244 245 243 242 231 230 228 239 249 253 250 251 256 259 259 261 260 259 264 269 266 265
207 232 229 228 233 237 236 229 228 231 232 233 236 237 240 242 221 213 222 245 252 251 249 247 247 243 230 233 226 228 237 243 247 253 259 261 262 256 258 258 254 262 269
65 51 42 254 249 255 252 251 250 248 247 245 246 247 249 247 220 217 221 238 252 254 251 247 247 251 245 239 241 236 235 232 229 232 244 252 256 260 256 256 266 264 260
49 42 36 31 31 17 345 313 292 277 268 264 261 261 260 261 232 219 222 250 251 253 253 251 248 249 244 232 241 247 248 246 237 230 234 242 250 254 252 254 251 251 254
44 44 44 40 33 27 17 356 340 308 291 285 281 275 271 271 256 228 223 258 262 262 258 255 249 247 249 227 236 244 248 248 250 238 225 233 240 239 227 236 246 249 253
46 48 46 39 37 32 19 9 354 336 323 308 301 293 286 283 278 247 232 259 272 273 269 264 260 240 238 235 234 245 250 255 255 251 245 236 231 230 227 221 227 240 248
48 46 42 34 23 25 17 7 356 341 318 308 304 299 294 294 290 282 254 251 268 279 279 278 279 276 254 243 238 245 247 250 253 252 249 244 239 233 228 225 221 226 238
44 39 33 28 24 15 0 353 341 337 323 323 318 311 309 311 303 272 265 267 266 272 279 280 284 285 277 260 244 238 238 241 243 243 243 243 242 238 236 229 228 227 234
26 18 11 5 1 7 344 343 341 338 335 331 324 318 315 311 312 327 325 310 291 278 280 284 275 264 257 256 258 242 237 238 237 240 243 244 243 239 233 232 230 225 229
0 350 341 341 348 332 328 329 323 331 341 317 318 316 315 313 333 341 317 308 309 310 310 294 281 273 266 258 252 247 242 235 233 238 242 242 241 239 236 230 231 233 235
339 338 332 329 333 322 319 313 274 263 242 237 250 269 292 294 303 301 295 288 282 282 284 278 275 273 271 269 264 257 247 242 238 235 235 235 236 237 236 233 231 233 237
326 328 324 325 324 320 317 314 312 295 245 238 240 243 254 276 282 284 284 285 280 272 268 270 272 273 272 270 268 264 260 253 245 241 238 235 234 236 235 233 232 234 236
314 318 312 316 316 314 314 312 310 310 311 308 283 254 254 263 272 277 279 285 285 275 276 280 280 279 276 275 274 272 268 263 254 246 240 236 232 232 233 234 234 233 235
313 320 330 321 311 311 314 312 310 312 312 312 312 306 293 285 276 275 279 288 297 299 297 293 289 286 282 280 279 277 273 268 261 251 243 237 235 233 234 235 236 233 235
310 333 316 311 310 318 321 319 318 317 315 315 314 316 324 321 312 310 306 306 304 303 301 297 293 288 285 280 277 276 273 267 263 256 246 239 236 235 235 235 234 232 231
325 327 313 305 323 329 325 321 318 316 315 316 314 320 325 312 306 306 308 307 307 306 305 302 296 292 290 284 276 274 273 269 262 256 250 245 239 235 233 232 232 234 235
324 325 329 330 330 330 328 317 317 318 318 317 315 316 315 308 308 308 308 309 309 306 304 301 299 297 296 295 293 287 278 274 270 263 255 249 243 238 233 232 235 236 236
329 333 333 334 331 330 320 324 325 322 320 319 318 318 319 316 313 312 312 312 310 308 307 306 305 303 303 300 295 289 285 284 280 274 268 258 248 241 237 235 236 237 237
342 340 339 338 337 334 332 329 326 324 323 320 318 317 316 315 315 315 316 314 312 310 310 309 307 309 310 307 298 296 303 315 313 299 286 277 267 254 245 241 240 239 242
353 351 346 344 341 335 331 330 329 326 322 320 320 319 319 319 318 317 317 315 314 312 312 311 309 311 315 318 320 324 336 334 326 317 300 283 274 268 260 253 249 247 245
1 356 349 345 339 335 332 331 330 328 324 323 322 322 322 322 321 320 320 319 319 316 314 314 315 317 317 316 322 330 326 322 319 312 297 281 270 262 260 258 257 253 253